EW5206 Weather Reports


Display with metric or nautical units.
time (UTC)temp
F
wind
direction
speed
MPH
gust
MPH
rain 1hr
in
rain 24hr
in
rain mn
in
humidity
%
barometer
mb
20260502163005 59 0.0 0.0 0.00 0.00 0.00 39 1013.5
20260502161503 59 0.0 0.0 0.00 0.00 0.00 40 1013.6
20260502151552 53 0.0 0.0 0.00 0.00 0.00 48 1013.9
20260502123045 45 0.0 0.0 0.00 0.00 0.00 60 1013.7
20260502121542 44 0.0 0.0 0.00 0.00 0.00 59 1013.9
20260502114534 44 0.0 0.0 0.00 0.00 0.00 61 1013.7
20260502113034 44 0.0 0.0 0.00 0.00 0.00 63 1013.5
20260502111538 44 0.0 0.0 0.00 0.00 0.00 64 1013.3
20260502110035 44 0.0 0.0 0.00 0.00 0.00 62 1013.3
20260502104531 44 0.0 0.0 0.00 0.00 0.00 60 1013.1
20260502103034 44 0.0 0.0 0.00 0.00 0.00 60 1013.4
20260502101529 44 0.0 0.0 0.00 0.00 0.00 57 1013.4
20260502091522 46 0.0 0.0 0.00 0.00 0.00 61 1013.7
20260502071508 48 0.0 0.0 0.00 0.00 0.00 69 1013.3
20260502070015 48 0.0 0.0 0.00 0.00 0.00 69 1013.2
20260502064505 49 0.0 0.0 0.00 0.00 0.00 70 1013.4
20260502063005 49 0.0 0.0 0.00 0.00 0.00 69 1013.4
20260502061601 49 0.0 0.0 0.00 0.00 0.00 69 1013.5
20260502060059 49 0.0 0.0 0.00 0.00 0.00 67 1013.5
20260502054603 50 0.0 0.0 0.00 0.00 0.00 66 1013.6
20260502053057 50 0.0 0.0 0.00 0.00 0.00 65 1013.4
20260502051554 50 0.0 0.0 0.00 0.00 0.00 65 1013.3
20260502050056 51 0.0 0.0 0.00 0.00 0.00 64 1013.3
20260502044550 51 0.0 0.0 0.00 0.00 0.00 64 1013.5
20260502043050 52 0.0 0.0 0.00 0.00 0.00 64 1013.6
20260502041547 52 0.0 0.0 0.00 0.00 0.00 64 1013.4
20260502040043 52 0.0 0.0 0.00 0.00 0.00 63 1013.4
20260502034543 53 0.0 0.0 0.00 0.00 0.00 64 1013.4
20260502033046 53 0.0 0.0 0.00 0.00 0.00 64 1013.4
20260502031542 54 0.0 0.0 0.00 0.00 0.00 62 1013.2
20260502030042 54 0.0 0.0 0.00 0.00 0.00 62 1013.2
20260502024541 55 0.0 0.0 0.00 0.00 0.00 61 1013.0
20260502023048 56 0.0 0.0 0.00 0.00 0.00 59 1013.0
20260502021541 56 0.0 0.0 0.00 0.00 0.00 57 1012.8
20260502020039 57 0.0 0.0 0.00 0.00 0.00 55 1012.3
20260502014544 58 0.0 0.0 0.00 0.00 0.00 52 1012.1
20260502013045 58 0.0 0.0 0.00 0.00 0.00 49 1012.0
20260502011539 59 0.0 0.0 0.00 0.00 0.00 47 1011.7
20260502010045 59 0.0 0.0 0.00 0.00 0.00 44 1011.2
20260502004553 60 0.0 0.0 0.00 0.00 0.00 44 1010.8
20260502003037 61 0.0 0.0 0.00 0.00 0.00 42 1010.6
20260502001537 61 0.0 0.0 0.00 0.00 0.00 41 1010.3
20260502000049 62 0.0 0.0 0.00 0.00 0.00 42 1010.0
20260501234535 62 0.0 0.0 0.00 0.00 0.00 46 1009.7
20260501233039 63 0.0 0.0 0.00 0.00 0.00 46 1009.8
20260501231539 63 0.0 0.0 0.00 0.00 0.00 50 1009.8
20260501230038 64 0.0 0.0 0.00 0.00 0.00 48 1009.8
20260501224538 64 0.0 0.0 0.00 0.00 0.00 47 1009.7
20260501223033 64 0.0 0.0 0.00 0.00 0.00 45 1009.6
20260501221533 65 0.0 0.0 0.00 0.00 0.00 43 1009.7
20260501220031 65 0.0 0.0 0.00 0.00 0.00 42 1009.7
20260501214530 66 0.0 0.0 0.00 0.00 0.00 42 1009.9
20260501213030 66 0.0 0.0 0.00 0.00 0.00 42 1009.8
20260501211529 66 0.0 0.0 0.00 0.00 0.00 44 1010.0
20260501210027 66 0.0 0.0 0.00 0.00 0.00 40 1010.0
20260501204526 66 0.0 0.0 0.00 0.00 0.00 39 1010.2
20260501203026 66 0.0 0.0 0.00 0.00 0.00 39 1010.3
20260501201524 66 0.0 0.0 0.00 0.00 0.00 38 1010.4
20260501200022 66 0.0 0.0 0.00 0.00 0.00 38 1010.8
20260501194521 66 0.0 0.0 0.00 0.00 0.00 39 1010.8
20260501193024 66 0.0 0.0 0.00 0.00 0.00 37 1011.2
20260501191524 66 0.0 0.0 0.00 0.00 0.00 36 1011.5
20260501190013 66 0.0 0.0 0.00 0.00 0.00 37 1012.0
20260501184513 66 0.0 0.0 0.00 0.00 0.00 35 1012.1
20260501183014 66 0.0 0.0 0.00 0.00 0.00 39 1012.2
20260501181511 66 0.0 0.0 0.00 0.00 0.00 39 1012.2
20260501180012 67 0.0 0.0 0.00 0.00 0.00 38 1012.6
20260501174517 67 0.0 0.0 0.00 0.00 0.00 39 1012.9
20260501173006 67 0.0 0.0 0.00 0.00 0.00 35 1012.9
20260501171504 67 0.0 0.0 0.00 0.00 0.00 40 1013.3
20260501170004 67 0.0 0.0 0.00 0.00 0.00 37 1013.6
20260501164614 67 0.0 0.0 0.00 0.00 0.00 35 1013.6